#timestamp,LO_Frequency,Hit,StdDev 
1604282415.7,286046999.5,N
1604282435.5,286047011.9,Y
1604282455.3,286047002.8,P
1604282475.2,286046999.8,N
1604282495.0,286047000.0,N
1604282495.9,286047000.0,N
1604282515.8,286047002.4,N
1604282535.6,286047000.0,N
1604282555.4,286047000.4,N
1604282575.2,286046998.7,N
1604282595.1,286047000.9,N
1604282596.0,286047000.9,N
1604282615.8,286047000.5,N
1604282635.7,286047000.4,N
1604282655.5,286047000.4,N
1604282675.3,286047000.9,N
1604282695.1,286047000.4,N
1604282715.9,286047001.0,N
1604282735.7,286047000.5,N
1604282755.5,286047001.0,N
1604282775.4,286047000.6,N
1604282795.2,286047000.9,N
1604282815.0,286047000.0,N
1604282816.0,286047000.0,N
1604282835.8,286047002.5,N
1604282855.6,286047002.8,N
1604282875.4,286047001.2,N
1604282895.3,286046999.0,N
1604282915.1,286046998.5,N
1604282935.9,286046998.6,N
1604282955.7,286046998.4,N
1604282975.5,286047001.0,N
1604282995.4,286047001.2,N
1604283015.2,286047000.5,N
1604283035.0,286047000.5,N
1604283035.9,286047000.5,N
1604283055.8,286047002.5,N
1604283075.6,286047001.3,N
1604283095.4,286047002.0,N
1604283115.3,286047001.5,N
1604283135.1,286047001.8,N
1604283136.0,286047001.8,N
1604283155.8,286047001.3,N
1604283175.7,286047004.4,Y
1604283195.5,286047001.7,P
1604283215.3,286047002.0,P
1604283235.2,286047000.1,N
1604283255.9,286046999.9,N
1604283275.7,286047000.3,N
1604283295.6,286046998.2,N
1604283315.4,286047000.5,N
1604283335.2,286047002.2,N
1604283355.1,286047001.7,N
1604283356.0,286047001.7,N
1604283375.8,286047002.2,N
1604283395.6,286047001.9,N
1604283415.5,286047002.6,N
1604283435.3,286047000.0,N
1604283455.1,286047001.0,N
1604283475.9,286047000.3,N
1604283495.7,286046998.1,N
1604283515.5,286047000.7,N
1604283535.4,286047000.6,N
1604283555.2,286047000.2,N
1604283575.0,286047002.4,N
1604283575.9,286047002.4,N
1604283595.8,286047001.2,N
1604283615.6,286046998.4,N
1604283635.4,286046998.2,N
1604283655.3,286046998.1,N
1604283675.1,286046998.1,N
1604283676.0,286046998.1,N
1604283695.8,286047000.4,N
1604283715.7,286047002.8,N
1604283735.5,286047000.6,N
1604283755.3,286047000.6,N
1604283775.2,286046998.1,N
1604283795.9,286047001.2,N
1604283815.7,286047001.2,N
1604283835.6,286046999.9,N
1604283855.4,286047001.0,N
1604283875.2,286047002.8,N
1604283895.1,286047001.9,N
1604283896.0,286047001.9,N
1604283915.8,286047003.9,N
1604283935.6,286047002.3,N
1604283955.5,286047000.1,N
1604283975.3,286047002.1,N
1604283995.1,286047004.1,N
1604284015.9,286047001.7,N
1604284035.7,286047002.2,N
1604284055.5,286047002.7,N
1604284075.4,286047002.2,N
1604284095.2,286047001.4,N
1604284115.0,286047003.6,N
1604284115.9,286047003.6,N
1604284135.8,286047004.1,N
1604284155.6,286047005.7,N
1604284175.4,286047005.3,N
1604284195.3,286047005.6,N
1604284215.1,286047005.6,N
1604284235.8,286047005.0,N
1604284255.7,286047003.0,N
1604284275.5,286047005.4,N
1604284295.3,286047004.6,N
1604284315.2,286047007.4,Y
1604284335.0,286047004.2,P
1604284335.9,286047004.2,P
1604284355.7,286047001.8,N
1604284405.6,286047003.3,E
1604284415.5,286047002.3,N
1604284435.4,286047000.5,P
1604284455.2,286047000.9,N
1604284475.0,286047000.6,N
1604284475.9,286047000.6,N
1604284495.8,286047000.6,N
1604284515.6,286047000.1,N
1604284535.4,286047002.1,Y
1604284555.3,286047002.5,P
1604284575.1,286047001.0,N
1604284576.0,286047001.0,N
1604284595.8,286047000.7,N
1604284615.7,286047001.0,N
1604284635.5,286046998.6,N
1604284655.3,286047000.3,N
1604284675.2,286046999.7,N
1604284695.9,286047002.3,N
1604284715.7,286046999.9,N
1604284735.6,286047000.4,N
1604284755.4,286047000.4,N
1604284775.2,286047000.6,N
1604284795.1,286047000.1,N
1604284796.0,286047000.1,N
1604284815.8,286047001.0,N
1604284835.6,286047002.8,Y
1604284855.5,286046999.9,P
1604284875.3,286046998.4,P
1604284895.1,286046998.5,N
1604284915.9,286046998.5,N
1604284935.7,286047000.9,N
1604284955.5,286047000.3,N
1604284975.4,286047000.8,N
1604284995.2,286047000.7,N
1604285015.0,286047000.2,N
1604285015.9,286047000.2,N
1604285035.8,286047002.8,N
1604285055.6,286047002.0,N
1604285075.4,286047002.0,N
1604285095.3,286047003.9,Y
1604285115.1,286046999.9,P
1604285135.8,286047000.4,N
1604285155.7,286047000.9,P
1604285175.5,286047001.2,Y
1604285195.3,286046998.6,P
1604285215.2,286046998.4,N
1604285235.0,286046996.6,P
1604285235.9,286046996.6,N
1604285255.7,286046997.0,N
1604285275.6,286046997.6,N
1604285295.4,286046997.4,N
1604285315.2,286046999.2,N
1604285335.1,286046998.9,N
1604285336.0,286046998.9,N
1604285355.8,286046996.9,N
1604285375.6,286046996.5,Y
1604285395.5,286047001.2,P
1604285415.3,286047000.9,N
1604285435.1,286046999.0,N
1604285455.9,286046999.5,N
1604285475.7,286046999.1,N
1604285495.5,286046999.6,N
1604285515.4,286046999.3,N
1604285535.2,286046999.6,N
1604285555.0,286046996.9,Y
1604285556.0,286046996.9,P
1604285575.8,286046997.0,N
1604285625.7,286047000.6,E
1604285635.6,286046998.7,N
1604285655.4,286047000.8,P
1604285675.2,286046998.7,N
1604285695.1,286046996.9,Y
1604285696.0,286046996.9,P
1604285715.8,286046999.5,N
1604285735.6,286046996.5,N
1604285755.5,286046997.4,N
1604285775.3,286046999.4,N
1604285795.1,286047000.6,N
1604285815.9,286046998.6,N
1604285835.7,286046999.4,N
1604285855.5,286047001.2,N
1604285875.4,286047000.6,N
1604285895.2,286046998.2,N
1604285915.0,286046998.5,N
1604285915.9,286046998.5,N
1604285935.8,286046998.3,N
1604285955.6,286046999.3,N
1604285975.4,286046999.2,N
1604285995.3,286046998.3,N
